| time (UTC) | temp F | wind direction | speed MPH | gust MPH | rain 1hr in | rain 24hr in | rain mn in | humidity % | barometer mb |
| 20260504050531 | 57 | 125 | 0.0 | 0.0 | 0.00 | 0.00 | 0.00 | 88 | 1018.8 |
| 20260504045532 | 57 | 124 | 0.0 | 0.0 | 0.00 | 0.00 | 0.00 | 88 | 1018.9 |
| 20260504045029 | 57 | 125 | 0.0 | 0.0 | 0.00 | 0.00 | 0.00 | 88 | 1018.8 |
| 20260504044535 | 57 | 125 | 0.0 | 0.0 | 0.00 | 0.00 | 0.00 | 87 | 1018.9 |
| 20260504044028 | 57 | 125 | 0.0 | 0.0 | 0.00 | 0.00 | 0.00 | 87 | 1018.9 |
| 20260504043528 | 57 | 125 | 0.0 | 0.0 | 0.00 | 0.00 | 0.00 | 87 | 1018.9 |
| 20260504043027 | 57 | 125 | 0.0 | 0.0 | 0.00 | 0.00 | 0.00 | 87 | 1018.9 |
| 20260504042527 | 58 | 125 | 0.0 | 0.0 | 0.00 | 0.00 | 0.00 | 87 | 1018.8 |
| 20260504042031 | 58 | 125 | 0.0 | 0.0 | 0.00 | 0.00 | 0.00 | 87 | 1018.9 |
| 20260504041529 | 58 | 125 | 0.0 | 0.0 | 0.00 | 0.00 | 0.00 | 87 | 1018.9 |
| 20260504041025 | 58 | 125 | 0.0 | 0.0 | 0.00 | 0.00 | 0.00 | 86 | 1018.8 |
| 20260504040529 | 58 | 125 | 0.0 | 0.0 | 0.00 | 0.00 | 0.00 | 86 | 1018.8 |
| 20260504040024 | 58 | 125 | 0.0 | 0.0 | 0.00 | 0.00 | 0.00 | 86 | 1018.8 |
| 20260504035523 | 58 | 124 | 0.0 | 0.0 | 0.00 | 0.00 | 0.00 | 86 | 1018.9 |
| 20260504035022 | 59 | 124 | 0.0 | 0.0 | 0.00 | 0.00 | 0.00 | 85 | 1018.9 |
| 20260504034523 | 59 | 124 | 0.0 | 0.0 | 0.00 | 0.00 | 0.00 | 85 | 1018.8 |
| 20260504034022 | 59 | 124 | 0.0 | 0.0 | 0.00 | 0.00 | 0.00 | 85 | 1018.7 |
| 20260504033525 | 59 | 124 | 0.0 | 0.0 | 0.00 | 0.00 | 0.00 | 85 | 1018.9 |
| 20260504033023 | 59 | 124 | 0.0 | 0.0 | 0.00 | 0.00 | 0.00 | 84 | 1018.9 |
| 20260504032521 | 59 | 124 | 0.0 | 0.0 | 0.00 | 0.00 | 0.00 | 84 | 1018.9 |
| 20260504032021 | 60 | 124 | 0.0 | 0.0 | 0.00 | 0.00 | 0.00 | 84 | 1018.9 |
| 20260504031522 | 60 | 124 | 0.0 | 0.0 | 0.00 | 0.00 | 0.00 | 83 | 1019.0 |
| 20260504031022 | 60 | 124 | 0.0 | 0.0 | 0.00 | 0.00 | 0.00 | 83 | 1019.0 |
| 20260504030520 | 60 | 125 | 0.0 | 0.0 | 0.00 | 0.00 | 0.00 | 83 | 1019.0 |
| 20260504030033 | 61 | 124 | 0.0 | 0.0 | 0.00 | 0.00 | 0.00 | 82 | 1018.9 |
| 20260504025520 | 61 | 124 | 0.0 | 0.0 | 0.00 | 0.00 | 0.00 | 82 | 1019.0 |
| 20260504025021 | 61 | 124 | 0.0 | 0.0 | 0.00 | 0.00 | 0.00 | 81 | 1018.9 |
| 20260504024520 | 61 | 124 | 0.0 | 0.0 | 0.00 | 0.00 | 0.00 | 81 | 1019.0 |
| 20260504024024 | 61 | 124 | 0.0 | 0.0 | 0.00 | 0.00 | 0.00 | 81 | 1019.0 |
| 20260504023520 | 62 | 124 | 0.0 | 0.0 | 0.00 | 0.00 | 0.00 | 80 | 1018.9 |
| 20260504023020 | 62 | 124 | 0.0 | 0.0 | 0.00 | 0.00 | 0.00 | 80 | 1018.9 |
| 20260504022520 | 62 | 124 | 0.0 | 0.0 | 0.00 | 0.00 | 0.00 | 79 | 1018.7 |
| 20260504022019 | 62 | 124 | 0.0 | 0.0 | 0.00 | 0.00 | 0.00 | 79 | 1018.7 |
| 20260504021519 | 63 | 124 | 0.0 | 0.0 | 0.00 | 0.00 | 0.00 | 78 | 1018.7 |
| 20260504021019 | 63 | 360 | 0.0 | 0.0 | 0.00 | 0.00 | 0.00 | 78 | 1018.6 |
| 20260504020518 | 63 | 129 | 0.0 | 0.0 | 0.00 | 0.00 | 0.00 | 77 | 1018.5 |
| 20260504020020 | 64 | 127 | 0.0 | 0.0 | 0.00 | 0.00 | 0.00 | 77 | 1018.3 |
| 20260504015519 | 64 | 124 | 0.0 | 0.0 | 0.00 | 0.00 | 0.00 | 76 | 1018.3 |
| 20260504015022 | 65 | 124 | 0.0 | 0.0 | 0.00 | 0.00 | 0.00 | 75 | 1018.2 |
| 20260504014518 | 65 | 124 | 0.0 | 0.0 | 0.00 | 0.00 | 0.00 | 74 | 1018.2 |
| 20260504014017 | 65 | 360 | 0.0 | 0.0 | 0.00 | 0.00 | 0.00 | 73 | 1018.2 |
| 20260504013521 | 66 | 360 | 0.0 | 0.0 | 0.00 | 0.00 | 0.00 | 71 | 1018.1 |
| 20260504013017 | 66 | 126 | 0.0 | 0.0 | 0.00 | 0.00 | 0.00 | 70 | 1018.1 |
| 20260504012517 | 66 | 125 | 0.0 | 0.0 | 0.00 | 0.00 | 0.00 | 70 | 1017.9 |
| 20260504012020 | 66 | 360 | 0.0 | 0.0 | 0.00 | 0.00 | 0.00 | 69 | 1017.9 |
| 20260504011519 | 66 | 360 | 0.0 | 0.0 | 0.00 | 0.00 | 0.00 | 68 | 1017.8 |
| 20260504011016 | 67 | 360 | 0.0 | 0.0 | 0.00 | 0.00 | 0.00 | 67 | 1017.7 |
| 20260504010514 | 67 | 360 | 0.0 | 0.0 | 0.00 | 0.00 | 0.00 | 66 | 1017.6 |
| 20260504010014 | 67 | 360 | 0.0 | 0.0 | 0.00 | 0.00 | 0.00 | 66 | 1017.6 |
| 20260504005516 | 67 | 126 | 0.0 | 0.0 | 0.00 | 0.00 | 0.00 | 66 | 1017.5 |
| 20260504005014 | 67 | 126 | 0.0 | 0.0 | 0.00 | 0.00 | 0.00 | 65 | 1017.5 |
| 20260504004520 | 67 | 360 | 0.0 | 4.0 | 0.00 | 0.00 | 0.00 | 65 | 1017.4 |
| 20260504004012 | 68 | 360 | 1.0 | 4.0 | 0.00 | 0.00 | 0.00 | 64 | 1017.4 |
| 20260504003513 | 68 | 137 | 0.0 | 2.0 | 0.00 | 0.00 | 0.00 | 64 | 1017.4 |
| 20260504003012 | 68 | 360 | 0.0 | 3.0 | 0.00 | 0.00 | 0.00 | 64 | 1017.4 |
| 20260504002512 | 68 | 360 | 0.0 | 3.0 | 0.00 | 0.00 | 0.00 | 64 | 1017.1 |
| 20260504002012 | 68 | 119 | 0.0 | 3.0 | 0.00 | 0.00 | 0.00 | 63 | 1017.2 |
| 20260504001512 | 69 | 360 | 0.0 | 3.0 | 0.00 | 0.00 | 0.00 | 62 | 1017.2 |
| 20260504001013 | 69 | 124 | 1.0 | 3.0 | 0.00 | 0.00 | 0.00 | 61 | 1017.2 |
| 20260504000510 | 69 | 129 | 0.0 | 3.0 | 0.00 | 0.00 | 0.00 | 60 | 1017.2 |
| 20260504000010 | 70 | 123 | 0.0 | 1.0 | 0.00 | 0.00 | 0.00 | 59 | 1017.4 |
| 20260503235511 | 70 | 125 | 0.0 | 2.0 | 0.00 | 0.00 | 0.00 | 58 | 1017.5 |
| 20260503235011 | 70 | 125 | 0.0 | 2.0 | 0.00 | 0.00 | 0.00 | 57 | 1017.4 |
| 20260503234516 | 71 | 119 | 0.0 | 4.0 | 0.00 | 0.00 | 0.00 | 56 | 1017.4 |
| 20260503234011 | 71 | 121 | 1.0 | 5.0 | 0.00 | 0.00 | 0.00 | 55 | 1017.4 |
| 20260503233509 | 71 | 360 | 0.0 | 4.0 | 0.00 | 0.00 | 0.00 | 55 | 1017.4 |
| 20260503233009 | 71 | 360 | 0.0 | 2.0 | 0.00 | 0.00 | 0.00 | 54 | 1017.4 |
| 20260503232509 | 71 | 22 | 0.0 | 3.0 | 0.00 | 0.00 | 0.00 | 55 | 1017.5 |
| 20260503232009 | 71 | 360 | 0.0 | 3.0 | 0.00 | 0.00 | 0.00 | 55 | 1017.4 |
| 20260503231509 | 71 | 360 | 0.0 | 3.0 | 0.00 | 0.00 | 0.00 | 55 | 1017.4 |
| 20260503231013 | 71 | 360 | 0.0 | 3.0 | 0.00 | 0.00 | 0.00 | 55 | 1017.3 |
| 20260503230512 | 71 | 360 | 0.0 | 5.0 | 0.00 | 0.00 | 0.00 | 55 | 1017.2 |
| 20260503230008 | 71 | 360 | 1.0 | 5.0 | 0.00 | 0.00 | 0.00 | 55 | 1017.2 |
| 20260503225511 | 71 | 360 | 0.0 | 4.0 | 0.00 | 0.00 | 0.00 | 56 | 1017.3 |
| 20260503225008 | 71 | 360 | 0.0 | 4.0 | 0.00 | 0.00 | 0.00 | 56 | 1017.1 |
| 20260503224512 | 72 | 121 | 1.0 | 5.0 | 0.00 | 0.00 | 0.00 | 56 | 1017.3 |
| 20260503224008 | 72 | 94 | 0.0 | 5.0 | 0.00 | 0.00 | 0.00 | 56 | 1017.2 |
| 20260503223509 | 72 | 130 | 1.0 | 5.0 | 0.00 | 0.00 | 0.00 | 57 | 1017.1 |
| 20260503223008 | 72 | 123 | 0.0 | 2.0 | 0.00 | 0.00 | 0.00 | 56 | 1017.2 |
| 20260503222507 | 72 | 123 | 0.0 | 3.0 | 0.00 | 0.00 | 0.00 | 56 | 1017.3 |
| 20260503222007 | 72 | 123 | 0.0 | 6.0 | 0.00 | 0.00 | 0.00 | 56 | 1017.1 |
| 20260503221507 | 72 | 121 | 1.0 | 6.0 | 0.00 | 0.00 | 0.00 | 55 | 1017.2 |
| 20260503221010 | 72 | 123 | 1.0 | 4.0 | 0.00 | 0.00 | 0.00 | 54 | 1017.2 |
| 20260503220506 | 73 | 110 | 0.0 | 2.0 | 0.00 | 0.00 | 0.00 | 56 | 1017.3 |
| 20260503220019 | 73 | 62 | 0.0 | 0.0 | 0.00 | 0.00 | 0.00 | 55 | 1017.3 |
| 20260503215507 | 73 | 56 | 0.0 | 4.0 | 0.00 | 0.00 | 0.00 | 55 | 1017.3 |
| 20260503215005 | 73 | 125 | 0.0 | 5.0 | 0.00 | 0.00 | 0.00 | 55 | 1017.3 |
| 20260503214505 | 73 | 121 | 1.0 | 9.0 | 0.00 | 0.00 | 0.00 | 55 | 1017.2 |
| 20260503214005 | 73 | 87 | 2.0 | 9.0 | 0.00 | 0.00 | 0.00 | 55 | 1017.2 |
| 20260503213505 | 73 | 134 | 5.0 | 8.0 | 0.00 | 0.00 | 0.00 | 55 | 1017.1 |
| 20260503213009 | 73 | 331 | 0.0 | 4.0 | 0.00 | 0.00 | 0.00 | 57 | 1017.1 |
| 20260503212505 | 73 | 129 | 0.0 | 4.0 | 0.00 | 0.00 | 0.00 | 57 | 1017.0 |
| 20260503212005 | 73 | 125 | 0.0 | 4.0 | 0.00 | 0.00 | 0.00 | 55 | 1017.1 |
| 20260503211505 | 74 | 124 | 0.0 | 5.0 | 0.00 | 0.00 | 0.00 | 54 | 1017.2 |
| 20260503211004 | 74 | 107 | 1.0 | 7.0 | 0.00 | 0.00 | 0.00 | 54 | 1017.2 |
| 20260503210503 | 75 | 84 | 0.0 | 3.0 | 0.00 | 0.00 | 0.00 | 55 | 1017.2 |
| 20260503210003 | 75 | 87 | 1.0 | 3.0 | 0.00 | 0.00 | 0.00 | 55 | 1017.3 |
| 20260503205503 | 75 | 42 | 0.0 | 5.0 | 0.00 | 0.00 | 0.00 | 55 | 1017.1 |
| 20260503205003 | 75 | 26 | 1.0 | 5.0 | 0.00 | 0.00 | 0.00 | 54 | 1017.3 |
| 20260503204504 | 75 | 57 | 0.0 | 2.0 | 0.00 | 0.00 | 0.00 | 53 | 1017.3 |
| 20260503204003 | 75 | 73 | 0.0 | 4.0 | 0.00 | 0.00 | 0.00 | 54 | 1017.3 |
| 20260503203503 | 75 | 50 | 0.0 | 3.0 | 0.00 | 0.00 | 0.00 | 54 | 1017.4 |
| 20260503203001 | 75 | 105 | 0.0 | 4.0 | 0.00 | 0.00 | 0.00 | 54 | 1017.5 |
| 20260503202501 | 75 | 74 | 1.0 | 6.0 | 0.00 | 0.00 | 0.00 | 55 | 1017.6 |
| 20260503202001 | 75 | 72 | 0.0 | 6.0 | 0.00 | 0.00 | 0.00 | 55 | 1017.4 |
| 20260503201600 | 75 | 51 | 0.0 | 2.0 | 0.00 | 0.00 | 0.00 | 55 | 1017.4 |
| 20260503201100 | 75 | 125 | 0.0 | 2.0 | 0.00 | 0.00 | 0.00 | 55 | 1017.5 |
| 20260503200604 | 75 | 70 | 0.0 | 3.0 | 0.00 | 0.00 | 0.00 | 54 | 1017.5 |
| 20260503200104 | 74 | 115 | 0.0 | 6.0 | 0.00 | 0.00 | 0.00 | 54 | 1017.5 |
| 20260503195600 | 74 | 122 | 1.0 | 6.0 | 0.00 | 0.00 | 0.00 | 53 | 1017.8 |
| 20260503195059 | 75 | 20 | 1.0 | 4.0 | 0.00 | 0.00 | 0.00 | 54 | 1017.8 |
| 20260503194558 | 75 | 33 | 1.0 | 5.0 | 0.00 | 0.00 | 0.00 | 54 | 1017.9 |
| 20260503194101 | 75 | 32 | 1.0 | 7.0 | 0.00 | 0.00 | 0.00 | 53 | 1017.9 |
| 20260503193558 | 75 | 121 | 1.0 | 7.0 | 0.00 | 0.00 | 0.00 | 51 | 1018.0 |
| 20260503193110 | 75 | 92 | 0.0 | 4.0 | 0.00 | 0.00 | 0.00 | 52 | 1018.2 |
| 20260503192556 | 75 | 80 | 0.0 | 3.0 | 0.00 | 0.00 | 0.00 | 54 | 1018.2 |
| 20260503192156 | 75 | 57 | 0.0 | 3.0 | 0.00 | 0.00 | 0.00 | 53 | 1018.1 |
| 20260503191603 | 75 | 69 | 0.0 | 6.0 | 0.00 | 0.00 | 0.00 | 51 | 1018.4 |
| 20260503191056 | 75 | 21 | 1.0 | 6.0 | 0.00 | 0.00 | 0.00 | 52 | 1018.4 |
| 20260503190554 | 75 | 71 | 0.0 | 7.0 | 0.00 | 0.00 | 0.00 | 52 | 1018.4 |
| 20260503190057 | 75 | 128 | 1.0 | 4.0 | 0.00 | 0.00 | 0.00 | 50 | 1018.6 |
| 20260503185554 | 75 | 55 | 0.0 | 3.0 | 0.00 | 0.00 | 0.00 | 51 | 1018.7 |
| 20260503185058 | 75 | 94 | 0.0 | 7.0 | 0.00 | 0.00 | 0.00 | 52 | 1018.7 |
| 20260503184607 | 75 | 28 | 2.0 | 7.0 | 0.00 | 0.00 | 0.00 | 50 | 1018.7 |
| 20260503184054 | 75 | 88 | 0.0 | 2.0 | 0.00 | 0.00 | 0.00 | 50 | 1018.8 |
| 20260503183553 | 75 | 67 | 0.0 | 3.0 | 0.00 | 0.00 | 0.00 | 51 | 1018.9 |
| 20260503183106 | 75 | 61 | 0.0 | 3.0 | 0.00 | 0.00 | 0.00 | 53 | 1018.8 |
| 20260503182554 | 75 | 39 | 0.0 | 5.0 | 0.00 | 0.00 | 0.00 | 52 | 1018.8 |
| 20260503182052 | 75 | 124 | 1.0 | 5.0 | 0.00 | 0.00 | 0.00 | 51 | 1018.9 |
| 20260503181606 | 75 | 114 | 1.0 | 4.0 | 0.00 | 0.00 | 0.00 | 52 | 1018.9 |
| 20260503181049 | 74 | 45 | 0.0 | 4.0 | 0.00 | 0.00 | 0.00 | 54 | 1018.9 |
| 20260503180548 | 74 | 78 | 0.0 | 5.0 | 0.00 | 0.00 | 0.00 | 51 | 1018.9 |
| 20260503180047 | 74 | 59 | 1.0 | 7.0 | 0.00 | 0.00 | 0.00 | 55 | 1019.0 |
| 20260503175547 | 74 | 123 | 2.0 | 7.0 | 0.00 | 0.01 | 0.00 | 53 | 1019.0 |
| 20260503175046 | 74 | 84 | 1.0 | 6.0 | 0.00 | 0.01 | 0.00 | 53 | 1019.1 |
| 20260503174546 | 74 | 74 | 1.0 | 3.0 | 0.00 | 0.01 | 0.00 | 53 | 1018.9 |
| 20260503174044 | 74 | 122 | 1.0 | 6.0 | 0.00 | 0.01 | 0.00 | 54 | 1018.9 |
| 20260503173543 | 74 | 90 | 2.0 | 6.0 | 0.00 | 0.01 | 0.00 | 56 | 1019.0 |
| 20260503173050 | 73 | 64 | 0.0 | 4.0 | 0.00 | 0.01 | 0.00 | 58 | 1019.0 |
| 20260503172543 | 73 | 91 | 2.0 | 4.0 | 0.00 | 0.01 | 0.00 | 56 | 1019.0 |
| 20260503172040 | 73 | 105 | 0.0 | 4.0 | 0.00 | 0.01 | 0.00 | 57 | 1019.2 |
| 20260503171539 | 73 | 133 | 0.0 | 4.0 | 0.00 | 0.01 | 0.00 | 59 | 1019.3 |
| 20260503171039 | 73 | 89 | 1.0 | 4.0 | 0.00 | 0.01 | 0.00 | 58 | 1019.6 |
| 20260503170538 | 73 | 94 | 1.0 | 3.0 | 0.00 | 0.01 | 0.00 | 62 | 1019.5 |
| 20260503150519 | 67 | 360 | 0.0 | 3.0 | 0.00 | 0.22 | 0.00 | 78 | 1019.9 |
| 20260503131058 | 59 | 360 | 1.0 | 3.0 | 0.00 | 0.26 | 0.00 | 91 | 1019.2 |
| 20260503130555 | 59 | 360 | 0.0 | 2.0 | 0.00 | 0.26 | 0.00 | 91 | 1019.2 |
| 20260503110546 | 55 | 9 | 0.0 | 0.0 | 0.00 | 0.26 | 0.00 | 93 | 1018.3 |
| 20260503081540 | 57 | 360 | 0.0 | 2.0 | 0.00 | 0.26 | 0.00 | 93 | 1016.6 |
| 20260503081033 | 57 | 360 | 0.0 | 2.0 | 0.00 | 0.26 | 0.00 | 93 | 1016.7 |
| 20260503080532 | 57 | 360 | 0.0 | 1.0 | 0.00 | 0.26 | 0.00 | 93 | 1016.6 |
| 20260503072529 | 56 | 58 | 0.0 | 1.0 | 0.00 | 0.26 | 0.00 | 93 | 1016.3 |
| 20260503072027 | 56 | 58 | 0.0 | 1.0 | 0.00 | 0.26 | 0.00 | 92 | 1016.3 |
| 20260503071528 | 56 | 58 | 0.0 | 0.0 | 0.00 | 0.26 | 0.00 | 92 | 1016.3 |
| 20260503071027 | 56 | 58 | 0.0 | 0.0 | 0.00 | 0.26 | 0.00 | 92 | 1016.2 |
| 20260503070526 | 56 | 58 | 0.0 | 0.0 | 0.00 | 0.26 | 0.00 | 92 | 1016.3 |
| 20260503055018 | 58 | 58 | 0.0 | 0.0 | 0.00 | 0.26 | 0.00 | 92 | 1016.0 |
| 20260503054518 | 58 | 58 | 0.0 | 0.0 | 0.00 | 0.26 | 0.00 | 92 | 1015.9 |
| 20260503054020 | 58 | 58 | 0.0 | 0.0 | 0.00 | 0.26 | 0.00 | 92 | 1015.9 |
| 20260503053517 | 58 | 58 | 0.0 | 0.0 | 0.00 | 0.26 | 0.00 | 92 | 1016.0 |
| 20260503053017 | 58 | 58 | 0.0 | 0.0 | 0.00 | 0.26 | 0.00 | 92 | 1016.0 |
| 20260503052516 | 58 | 58 | 0.0 | 0.0 | 0.00 | 0.26 | 0.00 | 92 | 1015.9 |
| 20260503052017 | 59 | 58 | 0.0 | 0.0 | 0.00 | 0.26 | 0.00 | 92 | 1015.8 |